Погода в Аугусте

Италия     37°14′16″N   15°13′18″E
темп.,
°C
ветер,
м/с
пор.,
м/с
влажн.,
%
обл.,
%
осадки,
мм/ч
давл.,
гПа
погр.,
м
7 мая, пт
пт723:00+18зсз2256100 0.0 101612
02:00+17ссз346369 0.0 101456
05:00+17зсз336499 0.0 101444
08:00+18зсз226015 0.0 101453
11:00+18св44624 0.0 1015168
14:00+19св356566 0.0 1014177
17:00+19юв246074 0.1 1013107
20:00+18сз01734 0.6 101424
8 мая, сб
сб823:00+18сз22710 0.0 101418
02:00+17ссв33720 0.0 101432
05:00+16зсз23700 0.0 101456
08:00+18сз45560 0.0 1015118
11:00+19св44520 0.0 1016211
14:00+19в35660 0.0 1016218
17:00+19ююв34650 0.0 1016192
20:00+19ссв12640 0.0 101731
9 мая, вс
вс923:00+17с47780 0.0 1018142
02:00+16зсз44780 0.0 101895
05:00+16сз33750 0.0 101882
08:00+17сз11700 0.0 101993
11:00+18юв46680 0.0 1020305
14:00+19юв89695 0.0 1020353
17:00+19юв676994 0.0 1019250
20:00+18ююв457477 0.0 101970
10 мая, пн
пн1023:00+17ююз22725 0.0 102025
02:00+16з2273100 0.0 101963
05:00+16зюз2270100 0.0 101944
08:00+18ююз11652 0.0 101965
11:00+18юв66670 0.0 1019269
14:00+19юв911720 0.0 1018295
17:00+20ююв1013660 0.0 1016258
20:00+19ю67764 0.0 101787
11 мая, вт
вт1123:00+17юз237885 0.0 101845
02:00+17сз11800 0.0 101630
05:00+17з11800 0.0 101614
08:00+18ю22700 0.0 101679
11:00+19ююв78765 0.0 1016239
14:00+19ююв912735 0.0 1015242
17:00+19ююв912690 0.0 1013244
20:00+18ю56740 0.0 101367